Flag for U.S.A. Weather past 2 weeks in Pierre, South Dakota, U.S.A.

Now
77 °F

Mostly cloudy.


Feels Like: 79 °F
Forecast: 57 / 74 °F
Wind: 13 mph from Southeast

Location: Pierre Regional Airport

Current Time: Aug 27, 2014 at 4:40:14 PM

Latest Report: Aug 27, 2014 at 3:53 PM


Visibility: 10 mi

Pressure: 30.01 "Hg

Humidity: 69%

Dew point: 66 °F

Location of PierreLocation

Historic Weather in Pierre — Graph

°F

Pierre temperature yesterday

Maximum temperature yesterday: 73 °F (at 6:53 PM)
Minimum temperature yesterday: 47 °F (at 4:53 AM)
Average temperature yesterday: 59 °F

Past Weeks' High & Low Weather Summary

 TemperatureHumidityPressure
High91 °F (Aug 13, 3:53 PM)100% (Aug 15, 7:53 AM)30.20 "Hg (Aug 15, 7:53 AM)
Low47 °F (Aug 26, 4:53 AM)29% (Aug 12, 2:53 PM)29.58 "Hg (Aug 20, 5:53 PM)
Average71 °F73%29.86 "Hg
* Reported Aug 12 2:53 PM — Aug 27 2:53 PM, Pierre, Weather by CustomWeather, © 2014

Note: Actual official high and low records may vary slightly from our data, if they occured in-between our weather recording intervals... More about our weather records

Advertising

Pierre weather history for previous 24 hours

 ConditionsComfort  
Time TempWeatherWind HumidityBarometerVisibility
2:53 PM
Aug 27
77 °FOvercast.16 mph69%30.03 "Hg10 mi
1:53 PM75 °FPassing clouds.10 mph71%30.05 "Hg10 mi
12:53 PM66 °FLow clouds.12 mph90%30.08 "Hg8 mi
11:53 AM66 °FLow clouds.14 mph90%30.10 "Hg10 mi
10:53 AM65 °FFog.12 mph97%30.10 "Hg6 mi
9:53 AM62 °FFog.7 mph100%30.10 "Hg4 mi
8:53 AM60 °FFog.9 mph100%30.09 "Hg2 mi
7:53 AM60 °FFog.8 mph100%30.09 "Hg2 mi
6:53 AM60 °FFog.8 mph96%30.08 "Hg6 mi
5:53 AM61 °FLow clouds.7 mph87%30.07 "Hg10 mi
4:53 AM60 °FOvercast.9 mph86%30.08 "Hg10 mi
3:53 AM59 °FOvercast.9 mph87%30.09 "Hg10 mi
3:04 AM58 °FPassing clouds.8 mph90%30.11 "Hg10 mi
2:53 AM57 °FPassing clouds.10 mph93%30.10 "Hg10 mi
1:53 AM58 °FMostly cloudy.10 mph87%30.11 "Hg10 mi
12:53 AM57 °FClear.10 mph90%30.12 "Hg10 mi
11:53 PM
Aug 26
57 °FClear.10 mph90%30.14 "Hg10 mi
10:53 PM59 °FPassing clouds.12 mph87%30.13 "Hg10 mi
9:53 PM61 °FClear.8 mph83%30.11 "Hg10 mi
8:53 PM66 °FSunny.10 mph73%30.07 "Hg10 mi
7:53 PM69 °FScattered clouds.13 mph66%30.06 "Hg10 mi
6:53 PM73 °FPartly sunny.13 mph55%30.06 "Hg10 mi
5:53 PM72 °FSunny.13 mph57%30.08 "Hg10 mi
4:53 PM72 °FSunny.14 mph52%30.09 "Hg10 mi
Weather by CustomWeather, © 2014

See weather overviewHow to use our weather pages